Location: Newark
(42.9260°N, 89.3850°W)
Time: 09:00:09
(UTC+00:00)

STARLINK 1053 - Pass Details

Date: 11 December 2019
Orbit: 548 x 551 km, 53.0° (Epoch: 17 January)

Event Time Altitude Azimuth Distance (km) Brightness Sun altitude
Exits shadow 11:13:10 78° 294° (WNW) 573 3.4 -22.1°
Maximum altitude 11:13:25 87° 216° (SW) 563 3.5 -22.0°
Drops below altitude 10° 11:17:37 10° 128° (SE) 1,837 7.2 -21.3°
Enters shadow 12:14:20 -68° 324° (NW) 12,460 10.4 -11.3°
